AG7GN Bellingham WA US current weather conditions

sailwx.info

Wind from 321 at 0 knots gusting 3

Air temperature 11.1° C
Dewpoint 8.9° C

Last reported at 2019-Jun-20 10:09 UTC.
Time now 2019-Jun-20 10:59 UTC

Location: N 48°45' W 122°28'.
View on Google Maps.

See reports from other nearby stations

  
Tides and Currents Weather Stations Pressure Air Temp Water Temp Dewpoint Dewpoint Depression Visibility Wind Speed Wind Dir Waves Ship Positions
date/time (UTC)wind fromknots sea level pressurealtimeterstation pressurevisibilityair tempwater tempwave heightnotes
2019-Jun-20 10:09 321 0 gusting 3 11.1
2019-Jun-20 10:04 046 2 gusting 5 11.1
2019-Jun-20 09:59 101 2 gusting 5 11.1
2019-Jun-20 09:54 055 1 gusting 5 11.1
2019-Jun-20 09:49 060 1 gusting 3 11.1
2019-Jun-20 09:44 120 1 gusting 4 11.1
2019-Jun-20 09:39 131 1 gusting 5 11.1
2019-Jun-20 09:34 152 0 gusting 5 11.1
2019-Jun-20 09:29 142 1 gusting 3 11.1
2019-Jun-20 09:24 069 2 gusting 5 11.1
2019-Jun-20 09:19 066 2 gusting 5 11.1
2019-Jun-20 09:14 105 2 gusting 5 11.1
2019-Jun-20 09:09 112 2 gusting 5 11.1
2019-Jun-20 09:04 153 1 gusting 5 11.1
2019-Jun-20 08:59 129 1 gusting 5 11.1
2019-Jun-20 08:54 116 1 gusting 5 11.1
2019-Jun-20 08:49 111 0 gusting 4 11.1
2019-Jun-20 08:44 185 0 gusting 2 11.1
2019-Jun-20 08:39 207 0 gusting 2 11.1
2019-Jun-20 08:34 232 0 gusting 2 11.1
2019-Jun-20 08:29 289 0 gusting 2 11.1
2019-Jun-20 08:24 261 0 gusting 3 11.1
2019-Jun-20 08:19 133 1 gusting 4 11.1
2019-Jun-20 08:14 187 1 gusting 4 11.1
2019-Jun-20 08:09 143 1 gusting 6 11.7
2019-Jun-20 08:04 137 1 gusting 6 11.7
2019-Jun-20 07:59 114 1 gusting 5 11.7
2019-Jun-20 07:54 112 1 gusting 5 11.7
2019-Jun-20 07:49 148 1 gusting 6 11.7
2019-Jun-20 07:44 139 2 gusting 6 11.7
2019-Jun-20 07:39 127 1 gusting 6 11.7
2019-Jun-20 07:34 117 1 gusting 6 11.7
2019-Jun-20 07:29 103 2 gusting 6 11.7
2019-Jun-20 07:24 127 2 gusting 6 11.7
2019-Jun-20 07:19 129 2 gusting 5 11.7
2019-Jun-20 07:14 203 1 gusting 5 12.2
2019-Jun-20 07:09 086 1 gusting 5 12.2
2019-Jun-20 07:04 219 1 gusting 5 12.2
2019-Jun-20 06:59 255 1 gusting 5 12.8
2019-Jun-20 06:54 248 2 gusting 6 12.8
2019-Jun-20 06:49 128 1 gusting 6 12.8
2019-Jun-20 06:44 148 0 gusting 4 12.8
2019-Jun-20 06:39 089 0 gusting 3 12.8
2019-Jun-20 06:34 149 0 gusting 2 12.8
2019-Jun-20 06:29 119 0 gusting 3 12.8
2019-Jun-20 06:24 195 0 gusting 4 12.8
2019-Jun-20 06:19 127 1 gusting 4 12.8
2019-Jun-20 06:14 117 1 gusting 4 12.8
2019-Jun-20 06:09 127 0 gusting 3 12.8
2019-Jun-20 06:04 130 1 gusting 3 12.8
2019-Jun-20 05:59 141 1 gusting 3 12.8
2019-Jun-20 05:54 091 1 gusting 5 12.8
2019-Jun-20 05:49 105 0 gusting 5 12.8
2019-Jun-20 05:44 122 0 gusting 4 12.8
2019-Jun-20 05:39 111 1 gusting 5 12.8
2019-Jun-20 05:34 127 1 gusting 5 12.8
2019-Jun-20 05:29 231 1 gusting 4 12.8
2019-Jun-20 05:24 105 1 gusting 4 12.8
2019-Jun-20 05:19 072 1 gusting 4 13.3
2019-Jun-20 05:14 150 1 gusting 6 13.3
2019-Jun-20 05:09 228 1 gusting 6 13.3
2019-Jun-20 05:04 166 1 gusting 4 13.3
2019-Jun-20 04:59 179 1 gusting 4 13.3
2019-Jun-20 04:54 162 1 gusting 5 13.3
2019-Jun-20 04:49 190 1 gusting 5 13.3
2019-Jun-20 04:44 108 1 gusting 5 13.3
2019-Jun-20 04:39 203 1 gusting 4 13.3
2019-Jun-20 04:34 205 1 gusting 4 13.3
2019-Jun-20 04:29 131 1 gusting 4 13.3
2019-Jun-20 04:24 231 2 gusting 5 13.3
2019-Jun-20 04:19 146 1 gusting 5 13.3
2019-Jun-20 04:14 191 1 gusting 9 13.3
2019-Jun-20 04:09 185 2 gusting 9 13.3
2019-Jun-20 04:04 240 3 gusting 6 13.3
2019-Jun-20 03:59 124 2 gusting 7 13.3
2019-Jun-20 03:54 224 2 gusting 7 13.9
2019-Jun-20 03:49 139 3 gusting 7 13.9
2019-Jun-20 03:44 153 2 gusting 7 13.9
2019-Jun-20 03:39 136 2 gusting 6 14.4
2019-Jun-20 03:34 187 2 gusting 6 14.4
2019-Jun-20 03:29 237 1 gusting 5 15.0
2019-Jun-20 03:24 255 2 gusting 6 15.0
2019-Jun-20 03:19 227 2 gusting 6 15.0
2019-Jun-20 03:14 233 2 gusting 6 15.0
2019-Jun-20 03:09 193 2 gusting 6 15.0
2019-Jun-20 03:04 140 2 gusting 6 15.0
2019-Jun-20 02:59 153 2 gusting 6 15.0
2019-Jun-20 02:54 218 2 gusting 6 15.0
2019-Jun-20 02:49 228 2 gusting 7 15.0
2019-Jun-20 02:44 141 2 gusting 7 15.0
2019-Jun-20 02:39 205 2 gusting 7 15.0
2019-Jun-20 02:34 201 2 gusting 6 15.0
2019-Jun-20 02:29 184 3 gusting 8 15.0
2019-Jun-20 02:24 231 3 gusting 8 15.0
2019-Jun-20 02:19 153 3 gusting 8 15.6
2019-Jun-20 02:14 250 3 gusting 6 15.6
2019-Jun-20 02:09 200 3 gusting 6 15.6
2019-Jun-20 02:04 257 2 gusting 6 15.6
2019-Jun-20 01:59 214 3 gusting 11 15.6
2019-Jun-20 01:54 252 3 gusting 11 15.6
2019-Jun-20 01:49 124 2 gusting 7 15.6
2019-Jun-20 01:44 184 3 gusting 13 15.6
2019-Jun-20 01:39 231 3 gusting 13 15.6
2019-Jun-20 01:34 218 3 gusting 7 16.1
2019-Jun-20 01:29 243 3 gusting 7 16.1
2019-Jun-20 01:24 125 3 gusting 6 16.1
2019-Jun-20 01:19 174 2 gusting 6 16.7
2019-Jun-20 01:14 193 2 gusting 7 16.7
2019-Jun-20 01:09 180 3 gusting 9 16.7
2019-Jun-20 01:04 235 3 gusting 9 16.7
2019-Jun-20 00:59 217 3 gusting 8 16.7
2019-Jun-20 00:54 216 5 gusting 12 16.7
2019-Jun-20 00:49 226 6 gusting 12 16.7
2019-Jun-20 00:44 240 6 gusting 13 16.7
2019-Jun-20 00:39 236 5 gusting 13 16.7
2019-Jun-20 00:34 197 4 gusting 11 17.2
2019-Jun-20 00:29 237 4 gusting 10 17.8
2019-Jun-20 00:24 115 4 gusting 10 17.8
2019-Jun-20 00:19 224 4 gusting 10 18.3
2019-Jun-20 00:14 214 4 gusting 10 18.3
2019-Jun-20 00:09 200 3 gusting 9 18.3
2019-Jun-20 00:04 231 3 gusting 7 18.3
2019-Jun-19 23:59 014 3 gusting 11 18.3
2019-Jun-19 23:54 229 4 gusting 11 17.8
2019-Jun-19 23:49 191 4 gusting 10 17.8
2019-Jun-19 23:44 206 4 gusting 10 17.2
2019-Jun-19 23:39 218 3 gusting 9 17.8
2019-Jun-19 23:34 216 2 gusting 8 17.8
2019-Jun-19 23:29 218 2 gusting 8 17.2
2019-Jun-19 23:24 224 4 gusting 10 17.2
2019-Jun-19 23:19 199 5 gusting 10 16.7
2019-Jun-19 23:14 218 5 gusting 10 16.7
2019-Jun-19 23:09 160 5 gusting 11 16.7
2019-Jun-19 23:04 101 5 gusting 11 16.7
2019-Jun-19 22:59 234 4 gusting 10 16.7
2019-Jun-19 22:54 219 6 gusting 13 16.7
2019-Jun-19 22:49 210 6 gusting 13 16.7
2019-Jun-19 22:44 172 5 gusting 13 16.7
2019-Jun-19 22:39 203 5 gusting 13 16.7
2019-Jun-19 22:34 171 6 gusting 13 16.1
2019-Jun-19 22:29 226 5 gusting 13 16.7
2019-Jun-19 22:24 200 5 gusting 13 16.7
2019-Jun-19 22:19 229 4 gusting 11 16.7
2019-Jun-19 22:14 222 4 gusting 13 17.2
2019-Jun-19 22:09 186 5 gusting 13 17.2
2019-Jun-19 22:04 188 5 gusting 11 17.8
2019-Jun-19 21:59 208 4 gusting 8 17.8
2019-Jun-19 21:54 193 4 gusting 12 17.2
2019-Jun-19 21:49 210 5 gusting 12 17.2
2019-Jun-19 21:44 208 6 gusting 13 17.8
2019-Jun-19 21:39 245 6 gusting 15 17.2
2019-Jun-19 21:34 194 5 gusting 15 17.2
2019-Jun-19 21:29 258 5 gusting 12 17.2
2019-Jun-19 21:24 231 6 gusting 15 16.7
2019-Jun-19 21:19 200 5 gusting 15 17.2
2019-Jun-19 21:14 227 5 gusting 12 17.8
2019-Jun-19 21:09 209 4 gusting 12 17.2
2019-Jun-19 21:04 206 4 gusting 10 17.8
2019-Jun-19 20:59 197 4 gusting 10 17.2
2019-Jun-19 20:54 205 3 gusting 12 18.3
2019-Jun-19 20:49 160 4 gusting 12 18.3
2019-Jun-19 20:44 141 5 gusting 12 17.8
2019-Jun-19 20:39 223 4 gusting 10 17.8
2019-Jun-19 20:34 274 5 gusting 12 17.8
2019-Jun-19 20:29 255 5 gusting 15 17.8
2019-Jun-19 20:24 198 6 gusting 15 17.8
2019-Jun-19 20:19 212 5 gusting 10 17.8
2019-Jun-19 20:14 263 4 gusting 9 18.3
2019-Jun-19 20:09 236 3 gusting 11 18.3
2019-Jun-19 20:04 205 3 gusting 11 18.3
2019-Jun-19 19:59 255 3 gusting 7 18.3
2019-Jun-19 19:54 223 3 gusting 8 18.3
2019-Jun-19 19:49 205 3 gusting 8 18.3
2019-Jun-19 19:44 201 3 gusting 9 17.8
2019-Jun-19 19:39 207 4 gusting 9 17.8
2019-Jun-19 19:34 243 4 gusting 9 17.8
2019-Jun-19 19:29 259 4 gusting 9 17.8
2019-Jun-19 19:24 281 4 gusting 8 17.8
2019-Jun-19 19:19 212 4 gusting 9 17.2
2019-Jun-19 19:14 201 5 gusting 10 17.2
2019-Jun-19 19:09 227 5 gusting 10 17.2
2019-Jun-19 19:04 203 4 gusting 8 17.2
2019-Jun-19 18:59 273 3 gusting 8 17.2
2019-Jun-19 18:54 224 3 gusting 9 17.2
2019-Jun-19 18:49 207 3 gusting 9 16.7
2019-Jun-19 18:44 224 2 gusting 9 17.2
2019-Jun-19 18:39 259 3 gusting 9 17.8
2019-Jun-19 18:34 213 3 gusting 8 17.2
2019-Jun-19 18:29 263 5 gusting 12 16.7
2019-Jun-19 18:24 163 6 gusting 12 16.7
2019-Jun-19 18:19 219 4 gusting 12 16.7
2019-Jun-19 18:14 231 4 gusting 12 17.2
2019-Jun-19 18:09 271 4 gusting 12 16.7
2019-Jun-19 18:04 263 5 gusting 13 16.7
2019-Jun-19 17:59 255 5 gusting 13 16.1
2019-Jun-19 17:54 208 4 gusting 10 16.1
2019-Jun-19 17:49 219 4 gusting 9 16.1
2019-Jun-19 17:44 231 4 gusting 11 15.6
2019-Jun-19 17:39 187 4 gusting 11 16.1
2019-Jun-19 17:34 201 4 gusting 9 15.6
2019-Jun-19 17:29 272 4 gusting 9 15.6
2019-Jun-19 17:24 211 4 gusting 9 15.6
2019-Jun-19 17:19 212 3 gusting 10 16.1
2019-Jun-19 17:14 203 3 gusting 10 15.6
2019-Jun-19 17:09 236 3 gusting 13 15.6
2019-Jun-19 17:04 115 4 gusting 13 15.6
2019-Jun-19 16:59 233 3 gusting 9 15.6
2019-Jun-19 16:54 113 3 gusting 6 15.6
2019-Jun-19 16:49 231 3 gusting 8 14.4
2019-Jun-19 16:44 204 3 gusting 8 14.4
2019-Jun-19 16:39 258 2 gusting 6 14.4
2019-Jun-19 16:34 248 2 gusting 8 14.4
2019-Jun-19 16:29 190 2 gusting 8 14.4
2019-Jun-19 16:24 235 2 gusting 8 14.4
2019-Jun-19 16:19 242 3 gusting 9 14.4
2019-Jun-19 16:14 148 3 gusting 9 13.9
2019-Jun-19 16:09 122 3 gusting 8 13.9
2019-Jun-19 16:04 215 3 gusting 8 13.9
2019-Jun-19 15:59 247 2 gusting 6 13.9
2019-Jun-19 15:54 229 2 gusting 6 13.9
2019-Jun-19 15:49 173 2 gusting 6 13.9
2019-Jun-19 15:44 194 3 gusting 9 13.9
2019-Jun-19 15:39 192 3 gusting 9 13.9
2019-Jun-19 15:34 199 3 gusting 8 13.3
2019-Jun-19 15:29 167 3 gusting 7 13.3
2019-Jun-19 15:24 250 3 gusting 7 13.3
2019-Jun-19 15:19 221 2 gusting 7 13.3
2019-Jun-19 15:14 212 2 gusting 7 13.3
2019-Jun-19 15:09 080 2 gusting 6 13.3
2019-Jun-19 15:04 266 2 gusting 5 13.3
2019-Jun-19 14:59 220 2 gusting 6 13.3
2019-Jun-19 14:54 096 2 gusting 6 12.8
2019-Jun-19 14:49 229 1 gusting 4 12.8
2019-Jun-19 14:44 198 1 gusting 4 12.8
2019-Jun-19 14:39 176 1 gusting 4 12.8
2019-Jun-19 14:34 207 0 gusting 3 12.8
2019-Jun-19 14:29 092 0 gusting 3 12.8
2019-Jun-19 14:24 220 0 gusting 4 12.8
2019-Jun-19 14:19 111 1 gusting 4 12.8
2019-Jun-19 14:14 136 1 gusting 3 12.8
2019-Jun-19 14:09 079 0 gusting 3 12.8
2019-Jun-19 14:04 038 12.8
2019-Jun-19 13:59 209 0 gusting 2 12.8
2019-Jun-19 13:54 077 0 gusting 2 12.8
2019-Jun-19 13:49 313 0 gusting 4 12.8
2019-Jun-19 13:44 115 0 gusting 5 12.2
2019-Jun-19 13:39 098 0 gusting 5 12.2
2019-Jun-19 13:34 110 0 gusting 4 12.2
2019-Jun-19 13:29 262 1 gusting 6 12.2
2019-Jun-19 13:24 188 1 gusting 6 12.2
2019-Jun-19 13:19 144 2 gusting 8 12.2
2019-Jun-19 13:14 200 2 gusting 8 12.2
2019-Jun-19 13:09 143 2 gusting 7 12.2
2019-Jun-19 13:04 279 1 gusting 6 12.2
2019-Jun-19 12:59 197 1 gusting 6 12.2
2019-Jun-19 12:54 248 1 gusting 5 12.2
2019-Jun-19 12:49 147 1 gusting 5 12.2
2019-Jun-19 12:44 281 2 gusting 7 12.2
2019-Jun-19 12:39 274 1 gusting 7 12.2
2019-Jun-19 12:34 101 2 gusting 6 12.2
2019-Jun-19 12:29 136 2 gusting 8 12.2
2019-Jun-19 12:24 111 1 gusting 8 12.2
2019-Jun-19 12:19 335 1 gusting 6 12.2
2019-Jun-19 12:14 084 2 gusting 6 12.2
2019-Jun-19 12:09 123 2 gusting 6 12.2
2019-Jun-19 12:04 191 1 gusting 4 12.2
2019-Jun-19 11:59 231 0 gusting 4 12.2
2019-Jun-19 11:54 254 0 gusting 4 12.2
2019-Jun-19 11:49 025 1 gusting 5 12.2
2019-Jun-19 11:44 143 1 gusting 5 12.2
2019-Jun-19 11:39 134 1 gusting 6 12.2
2019-Jun-19 11:34 141 1 gusting 6 12.2
2019-Jun-19 11:29 024 1 gusting 5 12.2
2019-Jun-19 11:24 218 2 gusting 6 12.2
2019-Jun-19 11:19 066 2 gusting 8 12.2
2019-Jun-19 11:14 268 2 gusting 8 12.2
2019-Jun-19 11:09 153 2 gusting 6 12.2
2019-Jun-19 11:04 235 2 gusting 6 12.2
2019-Jun-19 10:59 120 1 gusting 6 12.2
2019-Jun-19 10:54 124 1 gusting 4 12.2
2019-Jun-19 10:49 141 0 gusting 4 12.2
2019-Jun-19 10:44 240 0 gusting 7 12.2
2019-Jun-19 10:39 105 1 gusting 7 12.2
2019-Jun-19 10:34 271 0 gusting 6 12.2
2019-Jun-19 10:29 088 0 gusting 6 12.2
2019-Jun-19 10:24 056 1 gusting 6 12.2
2019-Jun-19 10:19 238 1 gusting 6 12.2
2019-Jun-19 10:14 075 1 gusting 7 12.2
2019-Jun-19 10:09 274 1 gusting 7 12.2
2019-Jun-19 10:04 143 1 gusting 4 12.2
2019-Jun-19 09:59 110 1 gusting 6 12.2
2019-Jun-19 09:54 122 2 gusting 6 12.2
2019-Jun-19 09:49 091 2 gusting 8 12.2
2019-Jun-19 09:44 091 3 gusting 8 12.2
2019-Jun-19 09:39 213 2 gusting 7 12.2
2019-Jun-19 09:34 223 3 gusting 9 12.2
2019-Jun-19 09:29 146 2 gusting 9 12.2
2019-Jun-19 09:24 129 2 gusting 9 12.2
2019-Jun-19 09:19 063 2 gusting 9 12.2
2019-Jun-19 09:13 190 1 gusting 5 12.2
2019-Jun-19 09:08 352 3 gusting 9 12.2
2019-Jun-19 09:03 124 3 gusting 9 12.2
2019-Jun-19 08:58 125 3 gusting 8 12.2
2019-Jun-19 08:53 093 2 gusting 8 12.2
2019-Jun-19 08:49 058 2 gusting 11 12.2
2019-Jun-19 08:43 117 2 gusting 11 12.2
2019-Jun-19 08:38 055 2 gusting 12 12.2
2019-Jun-19 08:33 238 2 gusting 12 12.2
2019-Jun-19 08:28 145 3 gusting 11 12.2
2019-Jun-19 08:23 025 3 gusting 10 12.2
2019-Jun-19 08:18 105 4 gusting 11 12.2
2019-Jun-19 08:13 134 4 gusting 11 12.2
2019-Jun-19 08:08 115 3 gusting 9 12.2
2019-Jun-19 08:03 141 3 gusting 10 12.2
2019-Jun-19 07:58 318 3 gusting 10 12.2
2019-Jun-19 07:53 115 4 gusting 13 12.2
2019-Jun-19 07:48 160 4 gusting 13 12.2
2019-Jun-19 07:43 119 3 gusting 9 12.2
2019-Jun-19 07:38 083 2 gusting 6 12.8
2019-Jun-19 07:33 181 2 gusting 6 12.8
2019-Jun-19 07:28 101 1 gusting 8 12.8
2019-Jun-19 07:24 127 2 gusting 9 12.8
2019-Jun-19 07:18 131 2 gusting 9 12.8
2019-Jun-19 07:13 088 1 gusting 6 12.8
2019-Jun-19 07:08 135 0 gusting 4 12.8
2019-Jun-19 07:03 134 1 gusting 4 12.8
2019-Jun-19 06:58 134 1 gusting 5 12.8
2019-Jun-19 06:53 152 1 gusting 5 12.8
2019-Jun-19 06:48 082 0 gusting 4 13.3
2019-Jun-19 06:43 242 0 gusting 4 13.3
2019-Jun-19 06:38 257 1 gusting 6 13.3
2019-Jun-19 06:33 137 1 gusting 6 13.3
2019-Jun-19 06:28 055 0 gusting 5 13.3
2019-Jun-19 06:23 082 1 gusting 6 13.3
2019-Jun-19 06:18 104 2 gusting 10 13.3
2019-Jun-19 06:13 124 3 gusting 10 13.3
2019-Jun-19 06:08 157 2 gusting 10 13.3
2019-Jun-19 06:03 020 2 gusting 10 13.3
2019-Jun-19 05:58 108 3 gusting 14 13.3
2019-Jun-19 05:53 080 3 gusting 14 13.9
2019-Jun-19 05:48 289 2 gusting 7 13.9
2019-Jun-19 05:43 148 2 gusting 7 13.9
2019-Jun-19 05:38 142 2 gusting 6 13.9
2019-Jun-19 05:33 088 2 gusting 6 13.9
2019-Jun-19 05:28 180 1 gusting 6 14.4
2019-Jun-19 05:23 179 1 gusting 6 14.4
2019-Jun-19 05:18 106 1 gusting 6 14.4
2019-Jun-19 05:13 146 2 gusting 9 14.4
2019-Jun-19 05:08 094 3 gusting 10 14.4
2019-Jun-19 05:03 084 3 gusting 10 14.4
2019-Jun-19 04:58 121 3 gusting 8 14.4
2019-Jun-19 04:53 139 3 gusting 8 14.4
2019-Jun-19 04:48 112 3 gusting 7 15.0
2019-Jun-19 04:43 106 2 gusting 6 15.0
2019-Jun-19 04:38 176 3 gusting 12 15.0
2019-Jun-19 04:33 103 4 gusting 12 15.0
2019-Jun-19 04:28 095 4 gusting 9 15.0
2019-Jun-19 04:23 071 4 gusting 10 15.0
2019-Jun-19 04:18 131 3 gusting 10 15.6
2019-Jun-19 04:13 208 3 gusting 9 15.6
2019-Jun-19 04:08 198 2 gusting 8 15.6
2019-Jun-19 04:03 115 2 gusting 8 15.6
2019-Jun-19 03:58 134 1 gusting 6 15.6
2019-Jun-19 03:53 106 1 gusting 7 16.1
2019-Jun-19 03:48 063 3 gusting 8 16.1
2019-Jun-19 03:43 082 3 gusting 8 16.1
2019-Jun-19 03:38 162 3 gusting 9 16.1
2019-Jun-19 03:33 132 4 gusting 9 16.1
2019-Jun-19 03:28 115 6 gusting 14 16.1
2019-Jun-19 03:23 099 6 gusting 14 16.7
2019-Jun-19 03:18 126 4 gusting 13 16.7
2019-Jun-19 03:13 134 5 gusting 12 16.7
2019-Jun-19 03:08 080 4 gusting 12 16.7
2019-Jun-19 03:03 139 4 gusting 10 16.7
2019-Jun-19 02:58 074 4 gusting 13 16.7
2019-Jun-19 02:53 077 2 gusting 13 17.2
2019-Jun-19 02:48 142 4 gusting 13 17.2
2019-Jun-19 02:43 086 4 gusting 13 17.2
2019-Jun-19 02:38 264 3 gusting 11 17.8
2019-Jun-19 02:33 129 3 gusting 11 17.8
2019-Jun-19 02:28 110 3 gusting 9 18.3
2019-Jun-19 02:23 115 2 gusting 9 18.3
2019-Jun-19 02:18 134 2 gusting 6 18.3
2019-Jun-19 02:13 090 2 gusting 6 18.3
2019-Jun-19 02:08 113 2 gusting 6 18.3
2019-Jun-19 02:03 238 3 gusting 10 18.3
2019-Jun-19 01:58 117 4 gusting 11 18.3
2019-Jun-19 01:53 151 4 gusting 11 18.9
2019-Jun-19 01:48 120 4 gusting 12 18.9
2019-Jun-19 01:43 248 3 gusting 12 18.9
2019-Jun-19 01:38 184 4 gusting 12 19.4
2019-Jun-19 01:33 215 5 gusting 13 19.4
2019-Jun-19 01:28 214 4 gusting 13 19.4
2019-Jun-19 01:23 210 4 gusting 13 19.4
2019-Jun-19 01:18 186 5 gusting 13 19.4
2019-Jun-19 01:08 219 3 gusting 10 20.0
2019-Jun-19 01:03 135 3 gusting 9 19.4
2019-Jun-19 00:58 259 4 gusting 11 19.4
2019-Jun-19 00:53 238 4 gusting 11 19.4
2019-Jun-19 00:48 142 4 gusting 12 19.4
2019-Jun-19 00:43 234 4 gusting 12 19.4
2019-Jun-19 00:38 294 5 gusting 12 19.4
2019-Jun-19 00:33 179 6 gusting 13 19.4
2019-Jun-19 00:28 172 4 gusting 13 20.0
2019-Jun-19 00:23 281 4 gusting 13 20.6
2019-Jun-19 00:18 193 4 gusting 13 20.6
2019-Jun-19 00:13 121 4 gusting 9 20.0
2019-Jun-19 00:08 245 4 gusting 9 20.0
2019-Jun-19 00:03 198 4 gusting 12 20.0
2019-Jun-18 23:58 251 5 gusting 12 20.0
2019-Jun-18 23:53 248 5 gusting 12 20.0
2019-Jun-18 23:48 221 5 gusting 11 20.0
2019-Jun-18 23:43 207 4 gusting 10 20.0
2019-Jun-18 23:38 194 4 gusting 10 20.0
2019-Jun-18 23:33 219 5 gusting 10 20.0
2019-Jun-18 23:28 205 5 gusting 10 20.0
2019-Jun-18 23:23 233 5 gusting 12 20.0
2019-Jun-18 23:18 135 6 gusting 13 19.4
2019-Jun-18 23:13 203 6 gusting 13 20.0
2019-Jun-18 23:08 262 5 gusting 11 20.0
2019-Jun-18 23:03 197 5 gusting 11 20.0
2019-Jun-18 22:58 208 5 gusting 11 20.6
2019-Jun-18 22:53 231 5 gusting 9 20.6
2019-Jun-18 22:48 176 5 gusting 15 20.0
2019-Jun-18 22:43 225 4 gusting 15 20.0
2019-Jun-18 22:38 254 3 gusting 9 20.6
2019-Jun-18 22:33 224 5 gusting 11 20.0
2019-Jun-18 22:28 283 6 gusting 11 20.0
2019-Jun-18 22:23 245 6 gusting 12 19.4
2019-Jun-18 22:18 250 5 gusting 12 20.0
2019-Jun-18 22:13 251 6 gusting 13 19.4
2019-Jun-18 22:08 224 6 gusting 13 19.4
2019-Jun-18 22:03 177 6 gusting 13 19.4
2019-Jun-18 21:58 208 6 gusting 13 19.4
2019-Jun-18 21:53 279 5 gusting 12 19.4
2019-Jun-18 21:48 252 6 gusting 12 19.4
2019-Jun-18 21:43 226 5 gusting 11 19.4
2019-Jun-18 21:13 254 6 gusting 13 20.0
2019-Jun-18 21:08 158 6 gusting 13 20.0
2019-Jun-18 21:03 205 6 gusting 13 19.4
2019-Jun-18 20:58 231 5 gusting 12 20.0
2019-Jun-18 20:53 215 5 gusting 10 19.4
2019-Jun-18 20:48 207 4 gusting 13 20.0
2019-Jun-18 20:43 191 4 gusting 13 20.0
2019-Jun-18 20:38 230 4 gusting 11 20.6
2019-Jun-18 20:33 243 4 gusting 11 20.6
2019-Jun-18 20:28 210 4 gusting 9 20.6
2019-Jun-18 20:23 227 5 gusting 9 20.0
2019-Jun-18 20:18 200 4 gusting 8 20.6
2019-Jun-18 20:13 218 4 gusting 10 20.6
2019-Jun-18 20:08 218 4 gusting 11 20.6
2019-Jun-18 20:03 170 2 gusting 11 21.1
2019-Jun-18 19:58 255 2 gusting 7 21.1
2019-Jun-18 19:53 290 2 gusting 7 20.6
2019-Jun-18 19:48 285 2 gusting 6 21.1
2019-Jun-18 19:43 294 2 gusting 8 21.1
2019-Jun-18 19:38 215 2 gusting 8 21.1
2019-Jun-18 19:33 283 1 gusting 6 21.1
2019-Jun-18 19:28 283 1 gusting 6 21.1
2019-Jun-18 19:23 216 2 gusting 6 20.6
2019-Jun-18 19:18 229 1 gusting 5 20.6
2019-Jun-18 19:13 201 2 gusting 6 20.6
2019-Jun-18 19:08 236 2 gusting 6 20.6
2019-Jun-18 19:03 248 3 gusting 9 20.0
2019-Jun-18 18:58 278 3 gusting 9 20.0
2019-Jun-18 18:53 241 2 gusting 6 20.6
2019-Jun-18 18:48 241 2 gusting 6 20.6
2019-Jun-18 18:43 271 2 gusting 6 21.1
2019-Jun-18 18:38 134 2 gusting 6 20.6
2019-Jun-18 18:33 154 2 gusting 6 20.6
2019-Jun-18 18:28 239 3 gusting 8 20.6
2019-Jun-18 18:23 212 3 gusting 8 20.0
2019-Jun-18 18:18 225 3 gusting 7 19.4
2019-Jun-18 18:13 232 3 gusting 7 20.0
2019-Jun-18 18:08 163 3 gusting 7 19.4
2019-Jun-18 18:03 222 3 gusting 7 19.4
2019-Jun-18 17:58 262 3 gusting 7 19.4
2019-Jun-18 17:53 246 2 gusting 6 19.4
2019-Jun-18 17:48 259 1 gusting 6 19.4
2019-Jun-18 17:43 212 1 gusting 6 19.4
2019-Jun-18 17:38 238 2 gusting 6 19.4
2019-Jun-18 17:33 206 1 gusting 6 19.4
2019-Jun-18 17:28 222 1 gusting 6 19.4
2019-Jun-18 17:23 226 1 gusting 6 18.9
2019-Jun-18 17:18 266 1 gusting 6 18.9
2019-Jun-18 17:13 262 1 gusting 6 19.4
2019-Jun-18 17:08 286 0 gusting 3 18.9
2019-Jun-18 17:03 218 0 gusting 2 18.9
2019-Jun-18 16:58 333 0 gusting 3 18.9
2019-Jun-18 16:53 281 0 gusting 3 18.3
2019-Jun-18 16:48 231 1 gusting 5 18.3
2019-Jun-18 16:43 256 1 gusting 5 18.3
2019-Jun-18 16:38 143 2 gusting 5 18.3
2019-Jun-18 16:33 150 2 gusting 5 18.3
2019-Jun-18 16:28 094 2 gusting 5 18.9
2019-Jun-18 16:23 098 2 gusting 4 18.3
2019-Jun-18 16:18 169 2 gusting 6 18.3
2019-Jun-18 16:13 105 2 gusting 6 17.8
2019-Jun-18 16:08 089 2 gusting 5 17.8
2019-Jun-18 16:03 108 2 gusting 6 18.3
2019-Jun-18 15:58 140 2 gusting 6 18.3
2019-Jun-18 15:53 154 2 gusting 6 17.8
2019-Jun-18 15:48 101 3 gusting 6 17.8
2019-Jun-18 15:43 115 2 gusting 6 17.8
2019-Jun-18 15:38 144 1 gusting 6 17.8
2019-Jun-18 15:33 148 1 gusting 6 18.3
2019-Jun-18 15:28 108 2 gusting 6 17.2
2019-Jun-18 15:23 115 1 gusting 5 17.2
2019-Jun-18 15:18 077 0 gusting 3 17.2
2019-Jun-18 15:13 123 0 gusting 3 17.2
2019-Jun-18 15:08 129 1 gusting 4 16.7
2019-Jun-18 15:03 212 2 gusting 6 16.7
2019-Jun-18 14:58 155 2 gusting 6 17.2
2019-Jun-18 14:53 224 1 gusting 4 17.2
2019-Jun-18 14:48 092 1 gusting 6 16.7
2019-Jun-18 14:43 124 1 gusting 6 16.1
2019-Jun-18 14:38 229 1 gusting 4 16.1
2019-Jun-18 14:33 141 1 gusting 4 15.6
2019-Jun-18 14:28 145 1 gusting 5 15.6
2019-Jun-18 14:23 158 1 gusting 5 15.6
2019-Jun-18 14:18 134 1 gusting 4 15.6
2019-Jun-18 14:13 227 1 gusting 4 15.6
2019-Jun-18 14:08 082 0 gusting 4 15.6
2019-Jun-18 14:03 236 0 gusting 4 15.6
2019-Jun-18 13:58 142 0 gusting 5 15.6
2019-Jun-18 13:53 177 0 gusting 5 15.6
2019-Jun-18 13:48 221 0 gusting 2 15.6
2019-Jun-18 13:43 091 1 gusting 4 15.0
2019-Jun-18 13:38 167 1 gusting 4 15.0
2019-Jun-18 13:33 115 1 gusting 5 15.0
2019-Jun-18 13:28 127 1 gusting 5 15.0
2019-Jun-18 13:23 124 1 gusting 4 15.0
2019-Jun-18 13:18 213 1 gusting 4 15.0
2019-Jun-18 13:13 087 1 gusting 4 15.0
2019-Jun-18 13:08 190 1 gusting 4 15.0
2019-Jun-18 13:03 164 2 gusting 6 15.0
2019-Jun-18 12:58 118 1 gusting 6 15.0
2019-Jun-18 12:53 101 1 gusting 4 15.0
2019-Jun-18 12:48 131 1 gusting 6 15.0
2019-Jun-18 12:43 189 1 gusting 6 15.0
2019-Jun-18 12:38 216 1 gusting 6 15.0
2019-Jun-18 12:33 063 1 gusting 6 15.0
2019-Jun-18 12:28 119 1 gusting 4 15.0
2019-Jun-18 12:23 114 0 gusting 4 15.0
2019-Jun-18 12:18 103 0 gusting 2 15.0
2019-Jun-18 12:13 194 0 gusting 1 15.0
2019-Jun-18 12:08 246 0 gusting 2 15.0
2019-Jun-18 12:03 029 1 gusting 5 15.0
2019-Jun-18 11:58 255 1 gusting 5 15.0
2019-Jun-18 11:53 254 0 gusting 5 15.0
2019-Jun-18 11:48 013 0 gusting 5 15.0
2019-Jun-18 11:43 096 0 gusting 4 15.0
2019-Jun-18 11:38 239 0 gusting 3 15.0
2019-Jun-18 11:33 122 1 gusting 6 15.0
2019-Jun-18 11:28 214 1 gusting 6 15.0
2019-Jun-18 11:23 239 0 gusting 5 15.0
2019-Jun-18 11:18 029 1 gusting 4 15.0
2019-Jun-18 11:13 094 1 gusting 6 15.0
2019-Jun-18 11:08 166 1 gusting 6 15.0
2019-Jun-18 11:03 103 1 gusting 4 15.6
2019-Jun-18 10:58 282 1 gusting 4 15.6
2019-Jun-18 10:53 262 1 gusting 4 15.6
2019-Jun-18 10:48 117 1 gusting 6 15.6
2019-Jun-18 10:43 120 1 gusting 6 15.6
2019-Jun-18 10:38 082 0 gusting 4 15.6
2019-Jun-18 10:33 122 0 gusting 6 15.6
2019-Jun-18 10:28 060 0 gusting 6 15.6